GW0175 Weather Reports


Display with metric or nautical units.
time (UTC)temp
F
wind
direction
speed
MPH
gust
MPH
rain 1hr
in
rain 24hr
in
rain mn
in
humidity
%
barometer
mb
20260508233912 88 41 4.0 7.0 0.00 0.00 0.00 12 1006.2
20260508233411 89 29 3.0 12.0 0.00 0.00 0.00 13 1006.4
20260508232908 90 10 5.0 6.0 0.00 0.00 0.00 13 1006.4
20260508232404 91 101 0.0 5.0 0.00 0.00 0.00 12 1006.2
20260508231902 91 63 1.0 3.0 0.00 0.00 0.00 12 1006.4
20260508231359 91 90 2.0 3.0 0.00 0.00 0.00 12 1006.2
20260508230856 90 286 1.0 5.0 0.00 0.00 0.00 12 1006.3
20260508230352 89 210 2.0 6.0 0.00 0.00 0.00 12 1006.4
20260508225850 90 328 0.0 3.0 0.00 0.00 0.00 12 1006.2
20260508225346 89 0 4.0 6.0 0.00 0.00 0.00 12 1006.2
20260508224844 89 19 4.0 7.0 0.00 0.00 0.00 12 1006.3
20260508224341 91 270 3.0 4.0 0.00 0.00 0.00 11 1006.3
20260508223839 89 345 4.0 13.0 0.00 0.00 0.00 13 1006.2
20260508223336 91 336 0.0 5.0 0.00 0.00 0.00 11 1006.2
20260508222833 90 325 3.0 8.0 0.00 0.00 0.00 11 1006.3
20260508222330 91 340 1.0 8.0 0.00 0.00 0.00 12 1006.4
20260508221827 91 32 2.0 3.0 0.00 0.00 0.00 12 1006.4
20260508221322 89 165 1.0 7.0 0.00 0.00 0.00 13 1006.3
20260508220819 91 0 0.0 4.0 0.00 0.00 0.00 13 1006.3
20260508220315 91 246 0.0 4.0 0.00 0.00 0.00 13 1006.4
20260508215812 90 277 0.0 5.0 0.00 0.00 0.00 13 1006.6
20260508215309 91 90 1.0 2.0 0.00 0.00 0.00 13 1006.4
20260508214806 90 229 2.0 5.0 0.00 0.00 0.00 14 1006.6
20260508214303 90 234 3.0 6.0 0.00 0.00 0.00 14 1006.4
20260508213759 90 270 3.0 3.0 0.00 0.00 0.00 13 1006.7
20260508213256 89 161 3.0 5.0 0.00 0.00 0.00 14 1006.9
20260508212753 88 203 2.0 4.0 0.00 0.00 0.00 14 1006.9
20260508212249 88 171 2.0 5.0 0.00 0.00 0.00 15 1006.9
20260508211745 89 112 3.0 4.0 0.00 0.00 0.00 15 1006.9
20260508211240 88 169 4.0 6.0 0.00 0.00 0.00 14 1006.7
20260508210738 88 155 3.0 4.0 0.00 0.00 0.00 15 1006.9
20260508210235 88 270 0.0 4.0 0.00 0.00 0.00 14 1006.9
20260508205732 87 168 2.0 6.0 0.00 0.00 0.00 15 1007.3
20260508205228 87 278 0.0 9.0 0.00 0.00 0.00 15 1007.1
20260508204725 89 241 3.0 3.0 0.00 0.00 0.00 15 1007.3
20260508204221 87 23 1.0 3.0 0.00 0.00 0.00 16 1007.3
20260508203717 85 225 5.0 6.0 0.00 0.00 0.00 17 1007.4
20260508203213 86 135 2.0 7.0 0.00 0.00 0.00 17 1007.5
20260508202710 87 168 2.0 5.0 0.00 0.00 0.00 17 1007.6
20260508202207 86 98 5.0 6.0 0.00 0.00 0.00 17 1007.7
20260508201704 86 130 4.0 9.0 0.00 0.00 0.00 18 1007.7
20260508201200 87 173 5.0 11.0 0.00 0.00 0.00 17 1007.9
20260508200657 87 240 3.0 5.0 0.00 0.00 0.00 18 1008.0
20260508200153 87 270 0.0 5.0 0.00 0.00 0.00 19 1007.9
20260508195650 87 150 2.0 6.0 0.00 0.00 0.00 19 1008.2
20260508195147 86 117 0.0 6.0 0.00 0.00 0.00 20 1008.0
20260508194643 86 297 5.0 5.0 0.00 0.00 0.00 22 1008.2
20260508194140 86 8 2.0 5.0 0.00 0.00 0.00 23 1008.2
20260508193637 84 191 3.0 7.0 0.00 0.00 0.00 23 1008.4
20260508193134 86 165 4.0 7.0 0.00 0.00 0.00 22 1008.5
20260508192630 84 49 2.0 6.0 0.00 0.00 0.00 23 1008.4
20260508192128 84 283 1.0 4.0 0.00 0.00 0.00 23 1008.7
20260508191624 84 75 1.0 4.0 0.00 0.00 0.00 24 1008.7
20260508191121 84 210 2.0 4.0 0.00 0.00 0.00 26 1008.6
20260508190619 84 166 5.0 6.0 0.00 0.00 0.00 26 1008.6
20260508190115 83 106 5.0 5.0 0.00 0.00 0.00 26 1008.8
20260508185612 84 185 3.0 5.0 0.00 0.00 0.00 26 1008.9
20260508185109 82 151 0.0 5.0 0.00 0.00 0.00 26 1008.9
20260508184606 81 156 6.0 7.0 0.00 0.00 0.00 27 1008.9
20260508184103 83 204 2.0 4.0 0.00 0.00 0.00 26 1009.1
20260508183600 82 0 4.0 4.0 0.00 0.00 0.00 27 1009.2
20260508183056 81 320 0.0 3.0 0.00 0.00 0.00 27 1009.2
20260508182552 81 189 3.0 5.0 0.00 0.00 0.00 28 1009.5
20260508182049 82 229 3.0 5.0 0.00 0.00 0.00 29 1009.5
20260508181544 81 235 4.0 5.0 0.00 0.00 0.00 30 1009.5
20260508181042 82 170 3.0 3.0 0.00 0.00 0.00 28 1009.9
20260508180538 80 41 4.0 4.0 0.00 0.00 0.00 31 1009.9
20260508180035 79 356 2.0 4.0 0.00 0.00 0.00 31 1009.9
20260508175531 80 297 3.0 5.0 0.00 0.00 0.00 32 1010.0
20260508175029 79 287 6.0 6.0 0.00 0.00 0.00 32 1010.2
20260508174526 80 254 2.0 3.0 0.00 0.00 0.00 33 1010.0
20260508174023 78 95 0.0 5.0 0.00 0.00 0.00 35 1010.1
20260508173520 78 212 2.0 4.0 0.00 0.00 0.00 36 1010.1
20260508173016 77 270 0.0 6.0 0.00 0.00 0.00 37 1010.1
20260508172513 77 353 0.0 4.0 0.00 0.00 0.00 36 1010.3
20260508172009 77 77 2.0 4.0 0.00 0.00 0.00 37 1010.6
20260508171506 78 135 0.0 3.0 0.00 0.00 0.00 37 1010.7
20260508171003 77 180 0.0 4.0 0.00 0.00 0.00 36 1010.7
20260508170500 75 168 2.0 5.0 0.00 0.00 0.00 33 1010.7
20260508165957 76 68 2.0 3.0 0.00 0.00 0.00 41 1010.6
20260508165455 76 250 3.0 5.0 0.00 0.00 0.00 43 1010.7
20260508164950 76 19 0.0 3.0 0.00 0.00 0.00 45 1010.6
20260508164448 75 108 2.0 3.0 0.00 0.00 0.00 45 1010.8
20260508163944 74 123 2.0 4.0 0.00 0.00 0.00 47 1010.7
20260508163442 74 225 2.0 5.0 0.00 0.00 0.00 48 1011.0
20260508162938 73 176 2.0 6.0 0.00 0.00 0.00 50 1010.9
20260508162436 72 148 2.0 7.0 0.00 0.00 0.00 50 1010.8
20260508161932 71 231 2.0 5.0 0.00 0.00 0.00 51 1011.0
20260508161429 71 163 5.0 6.0 0.00 0.00 0.00 53 1010.9
20260508160927 71 225 3.0 6.0 0.00 0.00 0.00 52 1011.0
20260508160426 70 203 1.0 9.0 0.00 0.00 0.00 52 1011.2
20260508155921 71 164 4.0 6.0 0.00 0.00 0.00 54 1010.9
20260508155418 69 225 2.0 7.0 0.00 0.00 0.00 56 1011.1
20260508154915 69 164 4.0 8.0 0.00 0.00 0.00 56 1011.1
20260508154413 70 158 3.0 5.0 0.00 0.00 0.00 57 1011.0
20260508153909 68 164 3.0 8.0 0.00 0.00 0.00 58 1011.2
20260508153406 67 170 3.0 7.0 0.00 0.00 0.00 59 1011.1
20260508152902 68 158 4.0 7.0 0.00 0.00 0.00 59 1011.3
20260508152359 67 157 4.0 8.0 0.00 0.00 0.00 59 1011.4
20260508151855 67 156 5.0 9.0 0.00 0.00 0.00 59 1011.3
20260508151353 66 255 2.0 5.0 0.00 0.00 0.00 62 1011.4
20260508150849 65 238 6.0 12.0 0.00 0.00 0.00 63 1011.3
20260508150346 65 130 3.0 8.0 0.00 0.00 0.00 64 1011.4
20260508145842 64 160 8.0 10.0 0.00 0.00 0.00 64 1011.4
20260508145338 65 185 4.0 4.0 0.00 0.00 0.00 65 1011.4
20260508144835 63 167 0.0 5.0 0.00 0.00 0.00 67 1011.4
20260508144333 63 167 3.0 6.0 0.00 0.00 0.00 68 1011.3
20260508143830 63 180 2.0 7.0 0.00 0.00 0.00 67 1011.6
20260508143327 62 215 1.0 7.0 0.00 0.00 0.00 68 1011.6
20260508142824 62 161 4.0 7.0 0.00 0.00 0.00 69 1011.6
20260508142321 62 180 3.0 7.0 0.00 0.00 0.00 70 1011.6
20260508141817 61 153 4.0 7.0 0.00 0.00 0.00 71 1011.8
20260508141314 61 199 3.0 9.0 0.00 0.00 0.00 71 1011.5
20260508140811 61 165 9.0 12.0 0.00 0.00 0.00 71 1011.3
20260508140308 61 150 5.0 6.0 0.00 0.00 0.00 72 1011.4
20260508135804 60 159 7.0 9.0 0.00 0.00 0.00 74 1011.3
20260508135300 60 176 8.0 8.0 0.00 0.00 0.00 74 1011.3
20260508134756 59 166 6.0 7.0 0.00 0.00 0.00 75 1011.4
20260508134254 59 183 2.0 6.0 0.00 0.00 0.00 76 1011.3
20260508133750 58 146 3.0 4.0 0.00 0.00 0.00 78 1011.4
20260508133248 57 178 3.0 4.0 0.00 0.00 0.00 79 1011.3
20260508132745 56 186 3.0 4.0 0.00 0.00 0.00 79 1011.2
20260508132243 56 172 2.0 4.0 0.00 0.00 0.00 79 1011.3
20260508131738 56 201 2.0 2.0 0.00 0.00 0.00 80 1011.3
20260508131235 56 103 1.0 3.0 0.00 0.00 0.00 83 1011.4
20260508130731 54 81 0.0 2.0 0.00 0.00 0.00 84 1011.3
20260508130229 54 99 0.0 0.0 0.00 0.00 0.00 86 1011.1
20260508125724 52 23 1.0 2.0 0.00 0.00 0.00 86 1011.1
20260508125221 51 41 0.0 2.0 0.00 0.00 0.00 86 1011.0
20260508124719 50 35 0.0 0.0 0.00 0.00 0.00 87 1010.9
20260508124216 49 35 0.0 0.0 0.00 0.00 0.00 87 1011.0
20260508123714 48 17 3.0 3.0 0.00 0.00 0.00 87 1010.9
20260508123212 49 12 1.0 1.0 0.00 0.00 0.00 87 1011.0
20260508122708 49 0 1.0 1.0 0.00 0.00 0.00 87 1010.9
20260508122205 48 186 0.0 1.0 0.00 0.00 0.00 88 1011.0
20260508121702 49 196 0.0 2.0 0.00 0.00 0.00 88 1011.0
20260508121201 49 173 0.0 1.0 0.00 0.00 0.00 88 1011.1
20260508120658 49 188 0.0 3.0 0.00 0.00 0.00 88 1011.1
20260508120156 49 168 0.0 2.0 0.00 0.00 0.00 88 1011.2
20260508115653 49 148 3.0 5.0 0.00 0.00 0.00 88 1011.2
20260508115150 50 164 5.0 5.0 0.00 0.00 0.00 88 1011.1
20260508114647 50 168 0.0 3.0 0.00 0.00 0.00 88 1011.0
20260508114143 50 154 1.0 2.0 0.00 0.00 0.00 88 1010.7
20260508113640 50 14 0.0 1.0 0.00 0.00 0.00 88 1010.7
20260508113138 50 106 0.0 0.0 0.00 0.00 0.00 88 1010.6
20260508112629 50 29 0.0 1.0 0.00 0.00 0.00 88 1010.8
20260508112126 50 63 1.0 2.0 0.00 0.00 0.00 87 1010.6
20260508111622 50 0 2.0 2.0 0.00 0.00 0.00 87 1010.4
20260508111120 51 5 2.0 3.0 0.00 0.00 0.00 87 1010.4
20260508110618 51 26 0.0 2.0 0.00 0.00 0.00 87 1010.6
20260508110113 50 21 2.0 2.0 0.00 0.00 0.00 87 1010.7
20260508105608 50 8 0.0 0.0 0.00 0.00 0.00 87 1010.8
20260508105105 50 8 0.0 0.0 0.00 0.00 0.00 86 1010.6
20260508104603 51 4 0.0 2.0 0.00 0.00 0.00 86 1010.3
20260508104059 51 23 0.0 0.0 0.00 0.00 0.00 86 1010.4
20260508103557 51 23 0.0 1.0 0.00 0.00 0.00 86 1010.4
20260508103054 51 14 0.0 0.0 0.00 0.00 0.00 85 1010.7
20260508102551 51 8 0.0 0.0 0.00 0.00 0.00 85 1010.2
20260508102049 51 8 0.0 2.0 0.00 0.00 0.00 84 1010.8
20260508101546 52 63 0.0 1.0 0.00 0.00 0.00 84 1010.6
20260508101043 52 277 0.0 0.0 0.00 0.00 0.00 84 1010.7
20260508100541 52 277 0.0 0.0 0.00 0.00 0.00 83 1010.4
20260508100038 52 99 0.0 1.0 0.00 0.00 0.00 83 1010.4
20260508095535 52 90 0.0 0.0 0.00 0.00 0.00 83 1010.7
20260508095032 52 90 0.0 1.0 0.00 0.00 0.00 83 1010.8
20260508094529 53 345 0.0 1.0 0.00 0.00 0.00 82 1010.8
20260508094026 53 169 1.0 1.0 0.00 0.00 0.00 82 1010.3
20260508093523 53 105 0.0 2.0 0.00 0.00 0.00 82 1010.7
20260508093021 53 287 0.0 2.0 0.00 0.00 0.00 81 1010.8
20260508092518 53 132 2.0 2.0 0.00 0.00 0.00 81 1010.8
20260508092017 53 148 0.0 3.0 0.00 0.00 0.00 81 1010.8
20260508091513 54 139 2.0 4.0 0.00 0.00 0.00 81 1010.6
20260508091010 53 41 0.0 2.0 0.00 0.00 0.00 80 1010.7
20260508090508 54 105 0.0 2.0 0.00 0.00 0.00 80 1010.7
20260508090005 54 117 0.0 2.0 0.00 0.00 0.00 80 1010.9
20260508085501 54 111 0.0 2.0 0.00 0.00 0.00 79 1010.9
20260508084958 55 90 1.0 3.0 0.00 0.00 0.00 78 1010.4
20260508084454 55 151 2.0 3.0 0.00 0.00 0.00 78 1010.7
20260508083952 56 124 0.0 2.0 0.00 0.00 0.00 77 1010.9
20260508083449 56 246 0.0 3.0 0.00 0.00 0.00 77 1011.1
20260508082944 56 154 0.0 3.0 0.00 0.00 0.00 76 1010.9
20260508082442 57 123 0.0 3.0 0.00 0.00 0.00 76 1010.9
20260508081939 57 139 2.0 3.0 0.00 0.00 0.00 75 1011.1
20260508081436 57 174 1.0 3.0 0.00 0.00 0.00 75 1011.1
20260508080932 57 180 1.0 2.0 0.00 0.00 0.00 75 1011.1
20260508080430 57 131 2.0 3.0 0.00 0.00 0.00 74 1011.0
20260508075927 58 107 4.0 4.0 0.00 0.00 0.00 73 1011.1
20260508075424 58 112 2.0 4.0 0.00 0.00 0.00 73 1011.0
20260508074922 58 110 2.0 3.0 0.00 0.00 0.00 72 1011.0
20260508074419 59 117 3.0 5.0 0.00 0.00 0.00 71 1011.1
20260508073915 59 150 5.0 8.0 0.00 0.00 0.00 70 1011.0
20260508073413 60 159 4.0 10.0 0.00 0.00 0.00 70 1011.0
20260508072910 60 173 5.0 7.0 0.00 0.00 0.00 69 1011.4
20260508072406 60 179 4.0 7.0 0.00 0.00 0.00 69 1011.3
20260508071904 60 157 4.0 6.0 0.00 0.00 0.00 69 1011.5
20260508071402 60 164 5.0 6.0 0.00 0.00 0.00 68 1011.3
20260508070859 60 180 3.0 6.0 0.00 0.00 0.00 68 1011.3
20260508070357 61 175 1.0 6.0 0.00 0.00 0.00 67 1011.6
20260508065854 61 180 4.0 5.0 0.00 0.00 0.00 66 1011.6
20260508065352 61 148 3.0 8.0 0.00 0.00 0.00 66 1011.6
20260508064850 61 166 4.0 7.0 0.00 0.00 0.00 66 1011.5
20260508064347 62 180 5.0 9.0 0.00 0.00 0.00 65 1011.5
20260508063845 62 145 6.0 11.0 0.00 0.00 0.00 65 1011.6
20260508063343 62 170 3.0 10.0 0.00 0.00 0.00 64 1011.8
20260508062839 62 152 6.0 9.0 0.00 0.00 0.00 64 1011.4
20260508062337 63 183 5.0 13.0 0.00 0.00 0.00 63 1011.5
20260508061834 63 155 5.0 10.0 0.00 0.00 0.00 63 1011.3
20260508061332 63 191 6.0 9.0 0.00 0.00 0.00 62 1011.5
20260508060828 63 162 7.0 12.0 0.00 0.00 0.00 62 1011.5
20260508060326 63 156 8.0 12.0 0.00 0.00 0.00 61 1011.2
20260508055820 63 192 5.0 14.0 0.00 0.00 0.00 60 1011.3
20260508055318 64 194 4.0 12.0 0.00 0.00 0.00 60 1011.3
20260508054815 64 175 8.0 12.0 0.00 0.00 0.00 59 1011.3
20260508054312 64 155 13.0 13.0 0.00 0.00 0.00 59 1011.1
20260508053809 64 116 6.0 11.0 0.00 0.00 0.00 59 1011.3
20260508053306 64 159 5.0 11.0 0.00 0.00 0.00 59 1011.3
20260508052804 64 185 3.0 11.0 0.00 0.00 0.00 59 1011.2
20260508052301 64 187 3.0 11.0 0.00 0.00 0.00 58 1011.2
20260508051757 64 155 5.0 11.0 0.00 0.00 0.00 57 1011.2
20260508051252 65 159 8.0 14.0 0.00 0.00 0.00 57 1011.3
20260508050749 65 180 6.0 12.0 0.00 0.00 0.00 56 1011.3
20260508050246 65 179 5.0 16.0 0.00 0.00 0.00 56 1011.3
20260508045742 65 192 7.0 11.0 0.00 0.00 0.00 56 1011.4
20260508045240 66 192 7.0 13.0 0.00 0.00 0.00 56 1011.4
20260508044737 65 196 11.0 12.0 0.00 0.00 0.00 56 1011.6
20260508044234 65 179 4.0 11.0 0.00 0.00 0.00 55 1011.3
20260508043730 65 168 2.0 9.0 0.00 0.00 0.00 55 1011.6
20260508043227 65 198 3.0 11.0 0.00 0.00 0.00 55 1011.5
20260508042724 65 154 8.0 13.0 0.00 0.00 0.00 54 1011.8
20260508042221 65 177 5.0 9.0 0.00 0.00 0.00 55 1011.3
20260508041718 64 171 5.0 7.0 0.00 0.00 0.00 54 1011.8
20260508041215 64 117 4.0 7.0 0.00 0.00 0.00 54 1011.5
20260508040711 64 178 3.0 4.0 0.00 0.00 0.00 54 1011.6
20260508040208 65 155 3.0 3.0 0.00 0.00 0.00 53 1011.3
20260508035706 65 166 2.0 3.0 0.00 0.00 0.00 53 1011.6
20260508035203 66 156 2.0 4.0 0.00 0.00 0.00 52 1011.6
20260508034659 65 180 2.0 4.0 0.00 0.00 0.00 52 1011.5
20260508034156 65 186 1.0 2.0 0.00 0.00 0.00 53 1011.8
20260508033653 65 169 2.0 3.0 0.00 0.00 0.00 53 1011.3
20260508033152 65 165 1.0 2.0 0.00 0.00 0.00 52 1011.4
20260508032649 65 132 0.0 2.0 0.00 0.00 0.00 52 1011.3
20260508032146 66 236 2.0 3.0 0.00 0.00 0.00 51 1011.2
20260508031643 66 206 2.0 4.0 0.00 0.00 0.00 51 1011.2
20260508031139 66 151 3.0 4.0 0.00 0.00 0.00 51 1011.2
20260508030635 66 153 3.0 5.0 0.00 0.00 0.00 51 1011.0
20260508030133 66 183 3.0 5.0 0.00 0.00 0.00 51 1011.0
20260508025629 66 152 3.0 5.0 0.00 0.00 0.00 50 1010.9
20260508025127 66 151 3.0 4.0 0.00 0.00 0.00 50 1010.9
20260508024622 66 156 2.0 5.0 0.00 0.00 0.00 50 1011.1
20260508024120 67 159 3.0 4.0 0.00 0.00 0.00 49 1011.0
20260508023616 67 148 0.0 3.0 0.00 0.00 0.00 50 1010.9
20260508023114 67 104 3.0 3.0 0.00 0.00 0.00 49 1010.8
20260508022609 67 144 0.0 3.0 0.00 0.00 0.00 48 1010.6
20260508022107 68 157 1.0 3.0 0.00 0.00 0.00 47 1010.8
20260508021602 68 152 2.0 3.0 0.00 0.00 0.00 47 1010.9
20260508021058 69 135 2.0 4.0 0.00 0.00 0.00 46 1010.4
20260508020556 69 157 5.0 7.0 0.00 0.00 0.00 45 1010.6
20260508020054 70 180 3.0 8.0 0.00 0.00 0.00 44 1010.4
20260508015551 70 163 6.0 10.0 0.00 0.00 0.00 43 1010.6
20260508015048 70 147 4.0 11.0 0.00 0.00 0.00 42 1010.1
20260508014544 71 172 7.0 10.0 0.00 0.00 0.00 42 1010.2
20260508014040 71 155 5.0 13.0 0.00 0.00 0.00 42 1010.1
20260508013536 71 161 9.0 13.0 0.00 0.00 0.00 41 1010.1
20260508013034 71 151 6.0 15.0 0.00 0.00 0.00 41 1010.2
20260508012531 72 154 8.0 15.0 0.00 0.00 0.00 41 1010.0
20260508012028 72 156 9.0 15.0 0.00 0.00 0.00 40 1010.2
20260508011527 72 164 7.0 13.0 0.00 0.00 0.00 40 1010.1
20260508011023 73 172 11.0 15.0 0.00 0.00 0.00 40 1010.2
20260508010520 73 161 12.0 13.0 0.00 0.00 0.00 39 1010.1
20260508010018 73 179 7.0 13.0 0.00 0.00 0.00 38 1010.3
20260508005514 73 181 9.0 12.0 0.00 0.00 0.00 38 1010.2
20260508005011 74 183 7.0 13.0 0.00 0.00 0.00 38 1010.2
20260508004507 74 183 5.0 10.0 0.00 0.00 0.00 37 1010.3
20260508004004 75 190 3.0 10.0 0.00 0.00 0.00 37 1010.3
20260508003500 75 200 3.0 17.0 0.00 0.00 0.00 36 1010.2
20260508002958 75 178 9.0 11.0 0.00 0.00 0.00 36 1010.4
20260508002454 75 166 8.0 11.0 0.00 0.00 0.00 35 1010.2
20260508001950 75 178 8.0 11.0 0.00 0.00 0.00 36 1010.3
20260508001446 75 162 7.0 11.0 0.00 0.00 0.00 36 1010.2
20260508000943 76 179 5.0 11.0 0.00 0.00 0.00 35 1010.6
20260508000439 76 168 1.0 11.0 0.00 0.00 0.00 35 1010.3
20260507235936 76 226 0.0 10.0 0.00 0.00 0.00 35 1010.7
20260507235433 76 154 2.0 7.0 0.00 0.00 0.00 34 1010.3
20260507234931 76 166 7.0 11.0 0.00 0.00 0.00 34 1010.4
20260507234427 76 179 6.0 9.0 0.00 0.00 0.00 34 1010.3